| time (UTC) | temp C | wind direction | speed KPH | gust KPH | rain 1hr cm | rain 24hr cm | rain mn cm | humidity % | barometer mb |
| 20260502130742 | 17 | 355 | 0.0 | 0.0 | 0.00 | 0.00 | 0.00 | 50 | 1007.6 |
| 20260502130256 | 17 | 353 | 0.0 | 0.0 | 0.00 | 0.00 | 0.00 | 50 | 1007.6 |
| 20260502130139 | 17 | 353 | 0.0 | 0.0 | 0.00 | 0.00 | 0.00 | 50 | 1007.6 |
| 20260502123738 | 17 | 353 | 0.0 | 0.0 | 0.00 | 0.00 | 0.00 | 48 | 1007.2 |
| 20260502123254 | 17 | 350 | 0.0 | 0.0 | 0.00 | 0.00 | 0.00 | 48 | 1007.2 |
| 20260502123138 | 18 | 353 | 0.0 | 0.0 | 0.00 | 0.00 | 0.00 | 47 | 1007.3 |
| 20260502122736 | 18 | 351 | 0.0 | 0.0 | 0.00 | 0.00 | 0.00 | 47 | 1007.3 |
| 20260502122245 | 18 | 353 | 0.0 | 0.0 | 0.00 | 0.00 | 0.00 | 47 | 1007.3 |
| 20260502121753 | 18 | 353 | 0.0 | 0.0 | 0.00 | 0.00 | 0.00 | 46 | 1007.3 |
| 20260502121253 | 18 | 355 | 0.0 | 0.0 | 0.00 | 0.00 | 0.00 | 45 | 1007.0 |
| 20260502120255 | 18 | 351 | 0.0 | 0.0 | 0.00 | 0.00 | 0.00 | 44 | 1007.0 |
| 20260502115737 | 18 | 353 | 0.0 | 0.0 | 0.00 | 0.00 | 0.00 | 44 | 1006.7 |
| 20260502115247 | 18 | 351 | 0.0 | 0.0 | 0.00 | 0.00 | 0.00 | 44 | 1006.7 |
| 20260502114740 | 18 | 354 | 0.0 | 0.0 | 0.00 | 0.00 | 0.00 | 44 | 1006.7 |
| 20260502114249 | 19 | 351 | 0.0 | 0.0 | 0.00 | 0.00 | 0.00 | 44 | 1006.5 |
| 20260502113753 | 19 | 353 | 0.0 | 0.0 | 0.00 | 0.00 | 0.00 | 44 | 1006.5 |
| 20260502113244 | 19 | 355 | 0.0 | 0.0 | 0.00 | 0.00 | 0.00 | 44 | 1006.5 |
| 20260502112751 | 20 | 351 | 0.0 | 0.0 | 0.00 | 0.00 | 0.00 | 44 | 1006.2 |
| 20260502112240 | 20 | 353 | 0.0 | 0.0 | 0.00 | 0.00 | 0.00 | 43 | 1006.2 |
| 20260502111750 | 20 | 357 | 0.0 | 0.0 | 0.00 | 0.00 | 0.00 | 43 | 1006.2 |
| 20260502110245 | 20 | 1 | 0.0 | 0.0 | 0.00 | 0.00 | 0.00 | 40 | 1006.1 |
| 20260502110129 | 20 | 351 | 0.0 | 0.0 | 0.00 | 0.00 | 0.00 | 39 | 1006.1 |
| 20260502105751 | 20 | 360 | 0.0 | 0.0 | 0.00 | 0.00 | 0.00 | 38 | 1005.8 |
| 20260502105239 | 21 | 351 | 0.0 | 0.0 | 0.00 | 0.00 | 0.00 | 37 | 1005.8 |
| 20260502104750 | 21 | 353 | 0.0 | 0.0 | 0.00 | 0.00 | 0.00 | 35 | 1005.8 |
| 20260502104239 | 21 | 355 | 0.0 | 0.0 | 0.00 | 0.00 | 0.00 | 32 | 1005.4 |
| 20260502103753 | 21 | 29 | 0.0 | 0.0 | 0.00 | 0.00 | 0.00 | 32 | 1005.4 |
| 20260502103249 | 21 | 35 | 0.0 | 0.0 | 0.00 | 0.00 | 0.00 | 30 | 1005.4 |
| 20260502103132 | 22 | 35 | 0.0 | 0.0 | 0.00 | 0.00 | 0.00 | 30 | 1005.4 |
| 20260502102753 | 22 | 35 | 0.0 | 0.0 | 0.00 | 0.00 | 0.00 | 30 | 1005.3 |
| 20260502102239 | 22 | 35 | 0.0 | 0.0 | 0.00 | 0.00 | 0.00 | 28 | 1005.3 |
| 20260502101752 | 22 | 35 | 0.0 | 0.0 | 0.00 | 0.00 | 0.00 | 27 | 1005.3 |
| 20260502101238 | 22 | 35 | 0.0 | 0.0 | 0.00 | 0.00 | 0.00 | 27 | 1005.2 |
| 20260502100748 | 22 | 35 | 0.0 | 0.0 | 0.00 | 0.00 | 0.00 | 26 | 1005.2 |
| 20260502100237 | 22 | 35 | 0.0 | 0.0 | 0.00 | 0.00 | 0.00 | 26 | 1005.2 |
| 20260502100142 | 22 | 35 | 0.0 | 0.0 | 0.00 | 0.00 | 0.00 | 25 | 1005.2 |
| 20260502091239 | 23 | 35 | 0.0 | 0.0 | 0.00 | 0.00 | 0.00 | 22 | 1004.4 |
| 20260502090735 | 23 | 35 | 0.0 | 0.0 | 0.00 | 0.00 | 0.00 | 22 | 1004.4 |
| 20260502090252 | 23 | 35 | 0.0 | 0.0 | 0.00 | 0.00 | 0.00 | 21 | 1004.4 |
| 20260502090136 | 23 | 35 | 0.0 | 0.0 | 0.00 | 0.00 | 0.00 | 21 | 1004.4 |
| 20260502071242 | 26 | 58 | 6.4 | 0.0 | 0.00 | 0.00 | 0.00 | 19 | 1002.9 |
| 20260502070752 | 26 | 46 | 4.8 | 0.0 | 0.00 | 0.00 | 0.00 | 19 | 1002.9 |
| 20260502070246 | 26 | 73 | 3.2 | 0.0 | 0.00 | 0.00 | 0.00 | 19 | 1002.9 |
| 20260502065738 | 26 | 53 | 4.8 | 0.0 | 0.00 | 0.00 | 0.00 | 19 | 1002.8 |
| 20260502065247 | 26 | 55 | 6.4 | 0.0 | 0.00 | 0.00 | 0.00 | 18 | 1002.8 |
| 20260502064747 | 27 | 43 | 6.4 | 0.0 | 0.00 | 0.00 | 0.00 | 18 | 1002.8 |
| 20260502063752 | 27 | 17 | 6.4 | 0.0 | 0.00 | 0.00 | 0.00 | 18 | 1002.5 |
| 20260502063247 | 27 | 31 | 4.8 | 0.0 | 0.00 | 0.00 | 0.00 | 18 | 1002.5 |
| 20260502063131 | 27 | 21 | 6.4 | 0.0 | 0.00 | 0.00 | 0.00 | 18 | 1002.5 |
| 20260502062752 | 27 | 58 | 8.0 | 0.0 | 0.00 | 0.00 | 0.00 | 18 | 1002.2 |
| 20260502062240 | 27 | 98 | 9.7 | 0.0 | 0.00 | 0.00 | 0.00 | 18 | 1002.2 |
| 20260502061242 | 27 | 84 | 11.3 | 0.0 | 0.00 | 0.00 | 0.00 | 18 | 1001.9 |
| 20260502055749 | 27 | 56 | 11.3 | 0.0 | 0.00 | 0.00 | 0.00 | 18 | 1001.8 |
| 20260502054755 | 28 | 58 | 4.8 | 0.0 | 0.00 | 0.00 | 0.00 | 17 | 1001.8 |
| 20260502054245 | 28 | 1 | 4.8 | 0.0 | 0.00 | 0.00 | 0.00 | 17 | 1001.6 |
| 20260502053753 | 28 | 15 | 3.2 | 0.0 | 0.00 | 0.00 | 0.00 | 17 | 1001.6 |
| 20260502053249 | 28 | 357 | 1.6 | 0.0 | 0.00 | 0.00 | 0.00 | 17 | 1001.6 |
| 20260502053133 | 28 | 357 | 3.2 | 0.0 | 0.00 | 0.00 | 0.00 | 18 | 1001.6 |
| 20260502052737 | 27 | 360 | 4.8 | 0.0 | 0.00 | 0.00 | 0.00 | 17 | 1001.3 |
| 20260502052248 | 27 | 354 | 4.8 | 0.0 | 0.00 | 0.00 | 0.00 | 18 | 1001.3 |
| 20260502051743 | 27 | 1 | 8.0 | 0.0 | 0.00 | 0.00 | 0.00 | 18 | 1001.3 |
| 20260502051253 | 27 | 66 | 8.0 | 0.0 | 0.00 | 0.00 | 0.00 | 18 | 1001.1 |
| 20260502050741 | 27 | 65 | 6.4 | 0.0 | 0.00 | 0.00 | 0.00 | 18 | 1001.1 |
| 20260502050133 | 27 | 11 | 6.4 | 0.0 | 0.00 | 0.00 | 0.00 | 18 | 1001.1 |
| 20260502045755 | 27 | 77 | 8.0 | 0.0 | 0.00 | 0.00 | 0.00 | 18 | 1001.0 |
| 20260502045244 | 27 | 25 | 11.3 | 0.0 | 0.00 | 0.00 | 0.00 | 18 | 1001.0 |
| 20260502044738 | 27 | 52 | 8.0 | 0.0 | 0.00 | 0.00 | 0.00 | 17 | 1001.0 |
| 20260502044254 | 27 | 15 | 8.0 | 0.0 | 0.00 | 0.00 | 0.00 | 17 | 1000.7 |
| 20260502043744 | 27 | 341 | 9.7 | 0.0 | 0.00 | 0.00 | 0.00 | 18 | 1000.7 |
| 20260502043129 | 27 | 122 | 8.0 | 0.0 | 0.00 | 0.00 | 0.00 | 18 | 1000.7 |
| 20260502042750 | 27 | 354 | 8.0 | 0.0 | 0.00 | 0.00 | 0.00 | 18 | 1000.2 |
| 20260502042242 | 27 | 34 | 8.0 | 0.0 | 0.00 | 0.00 | 0.00 | 17 | 1000.2 |
| 20260502041752 | 27 | 346 | 8.0 | 0.0 | 0.00 | 0.00 | 0.00 | 17 | 1000.2 |
| 20260502041244 | 27 | 1 | 9.7 | 0.0 | 0.00 | 0.00 | 0.00 | 16 | 1000.6 |
| 20260502040739 | 27 | 46 | 11.3 | 0.0 | 0.00 | 0.00 | 0.00 | 17 | 1000.6 |
| 20260502040255 | 27 | 60 | 14.5 | 0.0 | 0.00 | 0.00 | 0.00 | 16 | 1000.5 |
| 20260502040139 | 27 | 42 | 12.9 | 0.0 | 0.00 | 0.00 | 0.00 | 16 | 1000.5 |
| 20260502035742 | 27 | 358 | 12.9 | 0.0 | 0.00 | 0.00 | 0.00 | 15 | 1000.5 |
| 20260502035250 | 27 | 31 | 14.5 | 0.0 | 0.00 | 0.00 | 0.00 | 16 | 1000.5 |
| 20260502034745 | 27 | 53 | 14.5 | 0.0 | 0.00 | 0.00 | 0.00 | 16 | 1000.5 |
| 20260502034236 | 27 | 351 | 12.9 | 0.0 | 0.00 | 0.00 | 0.00 | 16 | 1000.4 |
| 20260502033747 | 27 | 2 | 12.9 | 0.0 | 0.00 | 0.00 | 0.00 | 16 | 1000.4 |
| 20260502033136 | 26 | 38 | 20.9 | 0.0 | 0.00 | 0.00 | 0.00 | 17 | 1000.4 |
| 20260502032734 | 26 | 346 | 20.9 | 0.0 | 0.00 | 0.00 | 0.00 | 17 | 1000.3 |
| 20260502032246 | 26 | 346 | 19.3 | 0.0 | 0.00 | 0.00 | 0.00 | 16 | 1000.3 |
| 20260502031741 | 26 | 354 | 16.1 | 0.0 | 0.00 | 0.00 | 0.00 | 16 | 1000.3 |
| 20260502031242 | 27 | 360 | 11.3 | 0.0 | 0.00 | 0.00 | 0.00 | 17 | 1000.3 |
| 20260502030738 | 27 | 340 | 12.9 | 0.0 | 0.00 | 0.00 | 0.00 | 17 | 1000.3 |
| 20260502030238 | 26 | 103 | 14.5 | 0.0 | 0.00 | 0.00 | 0.00 | 17 | 1000.3 |
| 20260502030142 | 26 | 82 | 16.1 | 0.0 | 0.00 | 0.00 | 0.00 | 18 | 1000.3 |
| 20260502025744 | 26 | 355 | 16.1 | 0.0 | 0.00 | 0.00 | 0.00 | 17 | 1000.2 |
| 20260502025255 | 26 | 327 | 16.1 | 0.0 | 0.00 | 0.00 | 0.00 | 16 | 1000.2 |
| 20260502024748 | 26 | 329 | 16.1 | 0.0 | 0.00 | 0.00 | 0.00 | 17 | 1000.2 |
| 20260502024236 | 26 | 45 | 14.5 | 0.0 | 0.00 | 0.00 | 0.00 | 17 | 1000.2 |
| 20260502023747 | 26 | 310 | 12.9 | 0.0 | 0.00 | 0.00 | 0.00 | 17 | 1000.2 |
| 20260502023240 | 26 | 343 | 14.5 | 0.0 | 0.00 | 0.00 | 0.00 | 17 | 1000.2 |
| 20260502023133 | 26 | 320 | 14.5 | 0.0 | 0.00 | 0.00 | 0.00 | 17 | 1000.2 |
| 20260502022747 | 26 | 358 | 16.1 | 0.0 | 0.00 | 0.00 | 0.00 | 16 | 999.7 |
| 20260502022235 | 26 | 316 | 16.1 | 0.0 | 0.00 | 0.00 | 0.00 | 17 | 999.7 |
| 20260502021747 | 26 | 288 | 16.1 | 0.0 | 0.00 | 0.00 | 0.00 | 17 | 999.7 |
| 20260502021238 | 26 | 323 | 14.5 | 0.0 | 0.00 | 0.00 | 0.00 | 17 | 999.7 |
| 20260502020751 | 26 | 66 | 12.9 | 0.0 | 0.00 | 0.00 | 0.00 | 17 | 999.7 |
| 20260502020250 | 26 | 35 | 12.9 | 0.0 | 0.00 | 0.00 | 0.00 | 19 | 999.7 |
| 20260502015738 | 26 | 316 | 12.9 | 0.0 | 0.00 | 0.00 | 0.00 | 17 | 999.8 |
| 20260502015247 | 26 | 319 | 12.9 | 0.0 | 0.00 | 0.00 | 0.00 | 18 | 999.8 |
| 20260502014736 | 26 | 31 | 12.9 | 0.0 | 0.00 | 0.00 | 0.00 | 17 | 999.8 |
| 20260502014247 | 26 | 324 | 11.3 | 0.0 | 0.00 | 0.00 | 0.00 | 18 | 999.7 |
| 20260502013737 | 26 | 324 | 9.7 | 0.0 | 0.00 | 0.00 | 0.00 | 19 | 999.7 |
| 20260502013253 | 26 | 28 | 8.0 | 0.0 | 0.00 | 0.00 | 0.00 | 18 | 999.7 |
| 20260502013136 | 26 | 338 | 6.4 | 0.0 | 0.00 | 0.00 | 0.00 | 18 | 999.7 |
| 20260502012236 | 25 | 314 | 1.6 | 0.0 | 0.00 | 0.00 | 0.00 | 24 | 999.6 |
| 20260502011750 | 25 | 354 | 1.6 | 0.0 | 0.00 | 0.00 | 0.00 | 24 | 999.6 |
| 20260502011238 | 25 | 22 | 3.2 | 0.0 | 0.00 | 0.00 | 0.00 | 24 | 999.5 |
| 20260502010749 | 24 | 22 | 1.6 | 0.0 | 0.00 | 0.00 | 0.00 | 27 | 999.5 |
| 20260502010247 | 23 | 233 | 0.0 | 0.0 | 0.00 | 0.00 | 0.00 | 26 | 999.5 |
| 20260502010131 | 23 | 223 | 0.0 | 0.0 | 0.00 | 0.00 | 0.00 | 26 | 999.5 |
| 20260502005748 | 23 | 224 | 0.0 | 0.0 | 0.00 | 0.00 | 0.00 | 27 | 999.6 |
| 20260502004736 | 23 | 251 | 0.0 | 0.0 | 0.00 | 0.00 | 0.00 | 29 | 999.6 |
| 20260502004246 | 23 | 300 | 0.0 | 0.0 | 0.00 | 0.00 | 0.00 | 29 | 999.4 |
| 20260502003755 | 23 | 49 | 0.0 | 0.0 | 0.00 | 0.00 | 0.00 | 29 | 999.4 |
| 20260502003250 | 22 | 48 | 0.0 | 0.0 | 0.00 | 0.00 | 0.00 | 31 | 999.3 |
| 20260502003133 | 22 | 351 | 0.0 | 0.0 | 0.00 | 0.00 | 0.00 | 31 | 999.3 |
| 20260502002735 | 22 | 48 | 0.0 | 0.0 | 0.00 | 0.00 | 0.00 | 32 | 999.3 |
| 20260502002246 | 21 | 254 | 0.0 | 0.0 | 0.00 | 0.00 | 0.00 | 35 | 999.3 |
| 20260502001739 | 21 | 244 | 0.0 | 0.0 | 0.00 | 0.00 | 0.00 | 36 | 999.3 |
| 20260502000747 | 21 | 128 | 0.0 | 0.0 | 0.00 | 0.00 | 0.00 | 38 | 999.2 |
| 20260502000241 | 21 | 89 | 0.0 | 0.0 | 0.00 | 0.00 | 0.00 | 39 | 999.2 |
| 20260502000146 | 21 | 107 | 0.0 | 0.0 | 0.00 | 0.00 | 0.00 | 39 | 999.2 |
| 20260501235747 | 21 | 186 | 0.0 | 0.0 | 0.00 | 0.00 | 0.00 | 38 | 999.2 |
| 20260501235236 | 20 | 206 | 0.0 | 0.0 | 0.00 | 0.00 | 0.00 | 38 | 999.2 |
| 20260501234750 | 20 | 155 | 0.0 | 0.0 | 0.00 | 0.00 | 0.00 | 39 | 999.2 |
| 20260501234239 | 20 | 180 | 0.0 | 0.0 | 0.00 | 0.00 | 0.00 | 39 | 999.2 |
| 20260501233748 | 20 | 146 | 0.0 | 0.0 | 0.00 | 0.00 | 0.00 | 39 | 999.1 |
| 20260501233134 | 20 | 130 | 0.0 | 0.0 | 0.00 | 0.00 | 0.00 | 39 | 999.1 |
| 20260501232751 | 20 | 192 | 0.0 | 0.0 | 0.00 | 0.00 | 0.00 | 41 | 998.6 |
| 20260501232240 | 20 | 117 | 0.0 | 0.0 | 0.00 | 0.00 | 0.00 | 44 | 998.6 |
| 20260501231254 | 19 | 103 | 0.0 | 0.0 | 0.00 | 0.00 | 0.00 | 45 | 998.7 |
| 20260501230747 | 18 | 56 | 0.0 | 0.0 | 0.00 | 0.00 | 0.00 | 46 | 998.7 |
| 20260501230133 | 18 | 227 | 0.0 | 0.0 | 0.00 | 0.00 | 0.00 | 50 | 998.7 |
| 20260501225753 | 17 | 233 | 0.0 | 0.0 | 0.00 | 0.00 | 0.00 | 50 | 998.3 |
| 20260501224745 | 17 | 151 | 0.0 | 0.0 | 0.00 | 0.00 | 0.00 | 53 | 998.3 |
| 20260501224236 | 17 | 138 | 0.0 | 0.0 | 0.00 | 0.00 | 0.00 | 53 | 998.0 |
| 20260501223749 | 17 | 169 | 0.0 | 0.0 | 0.00 | 0.00 | 0.00 | 53 | 998.0 |
| 20260501223241 | 17 | 221 | 0.0 | 0.0 | 0.00 | 0.00 | 0.00 | 53 | 998.0 |
| 20260501223130 | 17 | 221 | 0.0 | 0.0 | 0.00 | 0.00 | 0.00 | 53 | 998.0 |
| 20260501222749 | 17 | 221 | 0.0 | 0.0 | 0.00 | 0.00 | 0.00 | 54 | 997.7 |
| 20260501222240 | 16 | 227 | 0.0 | 0.0 | 0.00 | 0.00 | 0.00 | 56 | 997.7 |
| 20260501221754 | 16 | 221 | 0.0 | 0.0 | 0.00 | 0.00 | 0.00 | 56 | 997.7 |
| 20260501221244 | 16 | 227 | 0.0 | 0.0 | 0.00 | 0.00 | 0.00 | 56 | 997.4 |
| 20260501220739 | 16 | 257 | 0.0 | 0.0 | 0.00 | 0.00 | 0.00 | 56 | 997.4 |
| 20260501220255 | 16 | 228 | 0.0 | 0.0 | 0.00 | 0.00 | 0.00 | 56 | 997.4 |
| 20260501220139 | 16 | 228 | 0.0 | 0.0 | 0.00 | 0.00 | 0.00 | 56 | 997.4 |
| 20260501215742 | 17 | 226 | 0.0 | 0.0 | 0.00 | 0.00 | 0.00 | 54 | 997.0 |
| 20260501215252 | 18 | 221 | 0.0 | 0.0 | 0.00 | 0.00 | 0.00 | 50 | 997.0 |
| 20260501214747 | 18 | 216 | 0.0 | 0.0 | 0.00 | 0.00 | 0.00 | 38 | 997.0 |
| 20260501214236 | 18 | 26 | 0.0 | 0.0 | 0.00 | 0.00 | 0.00 | 39 | 996.5 |
| 20260501213740 | 18 | 26 | 0.0 | 0.0 | 0.00 | 0.00 | 0.00 | 39 | 996.5 |
| 20260501213146 | 18 | 39 | 0.0 | 0.0 | 0.00 | 0.00 | 0.00 | 40 | 996.5 |
| 20260501212748 | 18 | 38 | 0.0 | 0.0 | 0.00 | 0.00 | 0.00 | 41 | 996.2 |
| 20260501211740 | 17 | 357 | 0.0 | 0.0 | 0.00 | 0.00 | 0.00 | 44 | 996.1 |
| 20260501211253 | 17 | 334 | 0.0 | 0.0 | 0.00 | 0.00 | 0.00 | 46 | 996.0 |
| 20260501210751 | 17 | 333 | 0.0 | 0.0 | 0.00 | 0.00 | 0.00 | 47 | 996.0 |
| 20260501210242 | 16 | 333 | 0.0 | 0.0 | 0.00 | 0.00 | 0.00 | 47 | 996.0 |
| 20260501210129 | 16 | 333 | 0.0 | 0.0 | 0.00 | 0.00 | 0.00 | 47 | 996.0 |
| 20260501205750 | 16 | 333 | 0.0 | 0.0 | 0.00 | 0.00 | 0.00 | 46 | 995.8 |
| 20260501205240 | 16 | 333 | 0.0 | 0.0 | 0.00 | 0.00 | 0.00 | 46 | 995.8 |
| 20260501204233 | 16 | 333 | 0.0 | 0.0 | 0.00 | 0.00 | 0.00 | 47 | 995.5 |
| 20260501203745 | 16 | 360 | 0.0 | 0.0 | 0.00 | 0.00 | 0.00 | 48 | 995.5 |
| 20260501203243 | 15 | 337 | 0.0 | 0.0 | 0.00 | 0.00 | 0.00 | 50 | 995.5 |
| 20260501203127 | 15 | 341 | 0.0 | 0.0 | 0.00 | 0.00 | 0.00 | 51 | 995.5 |
| 20260501202746 | 15 | 353 | 0.0 | 0.0 | 0.00 | 0.00 | 0.00 | 53 | 995.1 |
| 20260501202236 | 15 | 326 | 0.0 | 0.0 | 0.00 | 0.00 | 0.00 | 54 | 995.1 |
| 20260501201752 | 14 | 324 | 0.0 | 0.0 | 0.00 | 0.00 | 0.00 | 55 | 995.1 |
| 20260501200737 | 14 | 314 | 0.0 | 0.0 | 0.00 | 0.00 | 0.00 | 57 | 994.9 |
| 20260501200238 | 14 | 313 | 0.0 | 0.0 | 0.00 | 0.00 | 0.00 | 60 | 994.9 |
| 20260501200143 | 13 | 307 | 0.0 | 0.0 | 0.00 | 0.00 | 0.00 | 60 | 994.8 |
| 20260501195749 | 13 | 312 | 0.0 | 0.0 | 0.00 | 0.00 | 0.00 | 64 | 994.2 |
| 20260501195240 | 12 | 316 | 0.0 | 0.0 | 0.00 | 0.00 | 0.00 | 71 | 994.2 |
| 20260501194754 | 12 | 326 | 0.0 | 0.0 | 0.00 | 0.00 | 0.00 | 77 | 994.2 |
| 20260501194245 | 11 | 323 | 0.0 | 0.0 | 0.00 | 0.00 | 0.00 | 82 | 994.4 |
| 20260501193238 | 10 | 312 | 0.0 | 0.0 | 0.00 | 0.00 | 0.00 | 85 | 994.4 |
| 20260501193142 | 10 | 264 | 0.0 | 0.0 | 0.00 | 0.00 | 0.00 | 85 | 994.4 |
| 20260501192743 | 10 | 331 | 0.0 | 0.0 | 0.00 | 0.00 | 0.00 | 85 | 994.1 |
| 20260501192253 | 10 | 283 | 0.0 | 0.0 | 0.00 | 0.00 | 0.00 | 85 | 994.1 |
| 20260501191746 | 10 | 300 | 0.0 | 0.0 | 0.00 | 0.00 | 0.00 | 85 | 994.1 |
| 20260501191235 | 10 | 271 | 0.0 | 0.0 | 0.00 | 0.00 | 0.00 | 85 | 993.7 |
| 20260501190748 | 10 | 288 | 0.0 | 0.0 | 0.00 | 0.00 | 0.00 | 85 | 993.7 |
| 20260501190246 | 10 | 285 | 0.0 | 0.0 | 0.00 | 0.00 | 0.00 | 85 | 993.7 |
| 20260501185753 | 10 | 285 | 0.0 | 0.0 | 0.00 | 0.00 | 0.00 | 85 | 992.9 |
| 20260501185242 | 10 | 285 | 0.0 | 0.0 | 0.00 | 0.00 | 0.00 | 85 | 992.9 |
| 20260501184735 | 10 | 285 | 0.0 | 0.0 | 0.00 | 0.00 | 0.00 | 85 | 992.9 |
| 20260501184245 | 10 | 285 | 0.0 | 0.0 | 0.00 | 0.00 | 0.00 | 85 | 992.5 |
| 20260501183737 | 10 | 285 | 0.0 | 0.0 | 0.00 | 0.00 | 0.00 | 84 | 992.5 |
| 20260501183253 | 10 | 288 | 0.0 | 0.0 | 0.00 | 0.00 | 0.00 | 84 | 992.5 |
| 20260501182739 | 10 | 271 | 0.0 | 0.0 | 0.00 | 0.00 | 0.00 | 84 | 992.3 |
| 20260501182249 | 10 | 265 | 0.0 | 0.0 | 0.00 | 0.00 | 0.00 | 84 | 992.3 |
| 20260501181743 | 10 | 266 | 0.0 | 0.0 | 0.00 | 0.00 | 0.00 | 84 | 992.3 |
| 20260501181254 | 10 | 272 | 0.0 | 0.0 | 0.00 | 0.00 | 0.00 | 84 | 991.7 |
| 20260501180750 | 10 | 269 | 0.0 | 0.0 | 0.00 | 0.00 | 0.00 | 83 | 991.7 |
| 20260501180247 | 10 | 272 | 0.0 | 0.0 | 0.00 | 0.00 | 0.00 | 83 | 991.7 |
| 20260501180131 | 10 | 272 | 0.0 | 0.0 | 0.00 | 0.00 | 0.00 | 83 | 991.7 |
| 20260501175734 | 10 | 271 | 0.0 | 0.0 | 0.00 | 0.00 | 0.00 | 83 | 991.3 |
| 20260501175244 | 10 | 271 | 0.0 | 0.0 | 0.00 | 0.00 | 0.00 | 83 | 991.3 |
| 20260501174741 | 10 | 272 | 0.0 | 0.0 | 0.00 | 0.00 | 0.00 | 83 | 991.3 |
| 20260501174252 | 10 | 274 | 0.0 | 0.0 | 0.00 | 0.00 | 0.00 | 83 | 991.3 |
| 20260501173742 | 10 | 276 | 0.0 | 0.0 | 0.00 | 0.00 | 0.00 | 83 | 991.3 |
| 20260501173239 | 10 | 286 | 0.0 | 0.0 | 0.00 | 0.00 | 0.00 | 83 | 991.3 |
| 20260501173126 | 10 | 278 | 0.0 | 0.0 | 0.00 | 0.00 | 0.00 | 83 | 991.3 |
| 20260501172241 | 11 | 309 | 0.0 | 0.0 | 0.00 | 0.00 | 0.00 | 82 | 991.2 |
| 20260501171753 | 11 | 262 | 0.0 | 0.0 | 0.00 | 0.00 | 0.00 | 82 | 991.2 |
| 20260501171243 | 11 | 258 | 0.0 | 0.0 | 0.00 | 0.00 | 0.00 | 82 | 990.9 |
| 20260501170738 | 11 | 279 | 0.0 | 0.0 | 0.00 | 0.00 | 0.00 | 82 | 990.9 |
| 20260501170237 | 11 | 259 | 0.0 | 0.0 | 0.00 | 0.00 | 0.00 | 82 | 990.9 |
| 20260501170141 | 11 | 258 | 0.0 | 0.0 | 0.00 | 0.00 | 0.00 | 82 | 990.9 |
| 20260501165241 | 11 | 274 | 0.0 | 0.0 | 0.00 | 0.00 | 0.00 | 81 | 990.8 |
| 20260501164753 | 11 | 266 | 0.0 | 0.0 | 0.00 | 0.00 | 0.00 | 81 | 990.8 |
| 20260501164242 | 11 | 255 | 0.0 | 0.0 | 0.00 | 0.00 | 0.00 | 81 | 990.5 |
| 20260501163751 | 11 | 254 | 0.0 | 0.0 | 0.00 | 0.00 | 0.00 | 81 | 990.5 |
| 20260501163249 | 11 | 261 | 0.0 | 0.0 | 0.00 | 0.00 | 0.00 | 81 | 990.5 |
| 20260501163133 | 11 | 264 | 0.0 | 0.0 | 0.00 | 0.00 | 0.00 | 81 | 990.5 |
| 20260501162254 | 11 | 262 | 0.0 | 0.0 | 0.00 | 0.00 | 0.00 | 81 | 990.7 |
| 20260501161748 | 12 | 254 | 0.0 | 0.0 | 0.00 | 0.00 | 0.00 | 81 | 990.7 |
| 20260501161237 | 12 | 257 | 0.0 | 0.0 | 0.00 | 0.00 | 0.00 | 82 | 990.6 |
| 20260501160751 | 12 | 255 | 0.0 | 0.0 | 0.00 | 0.00 | 0.00 | 82 | 990.6 |
| 20260501160136 | 12 | 257 | 0.0 | 0.0 | 0.00 | 0.00 | 0.00 | 83 | 990.6 |
| 20260501155754 | 12 | 252 | 0.0 | 0.0 | 0.00 | 0.00 | 0.00 | 83 | 990.7 |
| 20260501154739 | 12 | 289 | 0.0 | 0.0 | 0.00 | 0.00 | 0.00 | 85 | 990.7 |
| 20260501153138 | 12 | 334 | 0.0 | 0.0 | 0.00 | 0.00 | 0.00 | 85 | 990.6 |
| 20260501151745 | 12 | 334 | 0.0 | 0.0 | 0.00 | 0.00 | 0.00 | 84 | 990.8 |
| 20260501151240 | 13 | 334 | 0.0 | 0.0 | 0.00 | 0.00 | 0.00 | 84 | 990.8 |
| 20260501150737 | 13 | 334 | 0.0 | 0.0 | 0.00 | 0.00 | 0.00 | 84 | 990.8 |
| 20260501150238 | 13 | 334 | 0.0 | 0.0 | 0.00 | 0.00 | 0.00 | 84 | 990.8 |
| 20260501145748 | 13 | 334 | 0.0 | 0.0 | 0.00 | 0.00 | 2.49 | 84 | 990.8 |
| 20260501145239 | 13 | 334 | 0.0 | 0.0 | 0.00 | 0.00 | 2.49 | 84 | 990.8 |
| 20260501144243 | 13 | 334 | 0.0 | 0.0 | 0.00 | 0.00 | 2.49 | 83 | 990.8 |
| 20260501143734 | 13 | 334 | 0.0 | 0.0 | 0.00 | 0.00 | 2.49 | 83 | 990.8 |
| 20260501143247 | 13 | 333 | 0.0 | 0.0 | 0.00 | 0.00 | 2.49 | 83 | 990.8 |
| 20260501143135 | 13 | 334 | 0.0 | 0.0 | 0.00 | 0.00 | 2.49 | 83 | 990.8 |
| 20260501142752 | 13 | 334 | 0.0 | 0.0 | 0.00 | 0.00 | 2.49 | 83 | 990.7 |